This demonstration page uses our WeatherBlox Daily Observations layout. Learn more.

Left ArrowRight Arrow

40.97296, -117.73568

Hourly Observations for May 1, 2022

Temp ( °F °C ) Dew Point ( °F °C ) Humidity (%) Winds ( mph kmh ) Pressure ( in mb ) Visibility ( mi km ) Precip ( " mm )
12:56 am 00:56 Cloudy 44 6.7 37 2.8 76 76 NNW 20 31 29.81 1009 10 16 0.00 0.00
1:56 am 01:56 Cloudy with Rain 40 4.4 38 3.3 93 93 NNW 17 28 29.83 1010 5 8 0.04 1.02
2:09 am 02:09 Cloudy with Light Rain 40 4.4 38 3.3 93 93 NNW 16 26 29.93 1014 9 14 0.02 0.51
2:47 am 02:47 Cloudy with Light Rain 40 4.4 38 3.3 93 93 N 8 13 29.94 1014 10 16 0.04 1.02
2:56 am 02:56 Cloudy with Light Rain 40 4.4 37 2.8 89 89 N 8 13 29.84 1010 10 16 0.04 1.02
3:24 am 03:24 Cloudy 39 3.9 36 2.2 89 89 NNW 8 13 29.95 1014 10 16 0.00 0.00
3:54 am 03:54 Cloudy with Light Rain 37 3 36 2 93 93 NNW 12 19 29.96 1014 10 16 0.00 0.00
3:56 am 03:56 Cloudy with Light Rain 38 3.3 36 2.2 93 93 NW 13 20 29.84 1010 10 16 0.00 0.00
4:11 am 04:11 Cloudy with Light Rain 38 3.3 36 2.2 93 93 NNW 8 13 29.95 1014 7 11 0.00 0.00
4:56 am 04:56 Cloudy 38 3.3 36 2.2 93 93 WNW 8 13 29.84 1011 10 16 0.02 0.51
5:26 am 05:26 Cloudy 38 3.3 36 2.2 93 93 NW 7 11 29.95 1014 10 16 0.00 0.00
5:38 am 05:38 Cloudy 38 3.3 36 2.2 93 93 WNW 6 9 29.94 1014 10 16 0.00 0.00
5:56 am 05:56 Cloudy with Light Rain 38 3.3 36 2.2 93 93 WNW 3 6 29.84 1011 10 16 0.00 0.00
6:56 am 06:56 Cloudy 38 3.3 33 0.6 83 83 NW 12 19 29.88 1012 10 16 0.00 0.00
7:56 am 07:56 Cloudy with Light Rain 38 3.3 34 1.1 86 86 N 13 20 29.93 1014 10 16 0.00 0.00
8:56 am 08:56 Cloudy 40 4.4 34 1.1 79 79 Calm 29.94 1014 10 16 0.00 0.00
9:56 am 09:56 Cloudy 44 6.7 34 1.1 68 68 N 12 19 29.95 1014 10 16 0.00 0.00
10:17 am 10:17 Mostly Cloudy 49 9.4 36 2.2 61 61 N 15 24 29.95 1014 10 16 0.00 0.00
10:56 am 10:56 Partly Cloudy 50 10 35 1.7 57 57 N 12 19 29.96 1015 10 16 0.00 0.00
11:56 am 11:56 Partly Cloudy 53 11.7 33 0.6 47 47 NNW 12 19 29.96 1015 10 16 0.00 0.00
12:56 pm 12:56 Mostly Cloudy 54 12.2 33 0.6 45 45 NW 14 22 29.96 1015 10 16 0.00 0.00
1:56 pm 13:56 Mostly Cloudy 56 13.3 32 0 40 40 NW 9 15 29.98 1015 10 16 0.00 0.00
2:56 pm 14:56 Sunny 58 14.4 30 -1.1 35 35 VRB 5 7 29.97 1015 10 16 0.00 0.00
3:56 pm 15:56 Mostly Sunny 62 16.7 32 0 32 32 NNW 10 17 29.95 1014 10 16 0.00 0.00
4:56 pm 16:56 Mostly Sunny 61 16.1 31 -0.6 32 32 Calm 29.95 1014 10 16 0.00 0.00
5:56 pm 17:56 Sunny 60 15.6 28 -2.2 30 30 WNW 5 7 29.95 1014 10 16 0.00 0.00
6:56 pm 18:56 Sunny 58 14.4 26 -3.3 29 29 WSW 3 6 29.96 1014 10 16 0.00 0.00
7:56 pm 19:56 Clear 51 10.6 30 -1.1 44 44 Calm 29.97 1015 10 16 0.00 0.00
8:56 pm 20:56 Clear 47 8.3 33 0.6 59 59 ESE 5 7 30.00 1016 10 16 0.00 0.00
9:56 pm 21:56 Clear 40 4.4 32 0 73 73 SE 9 15 30.02 1017 10 16 0.00 0.00
10:56 pm 22:56 Clear 44 6.7 31 -0.6 60 60 S 12 19 29.98 1015 10 16 0.00 0.00
11:56 pm 23:56 Clear 41 5 29 -1.7 62 62 S 13 20 29.96 1015 10 16 0.00 0.00

Powered by AerisWeather